EZY32A EGCC-EHAM

Flight info

Callsign EZY32A
Flight time 0h 50m
Altitude 33000
Route DESIG L603 LAMSO
Aircraft A20N/M-SDE2E3FGHIRWXY/LB1

Departure

Time 2026-04-30 18:10
Airport Manchester Airport (EGCC)

Arrival

Time 2026-04-30 19:00
Airport Amsterdam Airport Schiphol (EHAM)
Time Latitude Longitude Altitude Speed Heading
2026-04-30 17:39 53.36170 -2.27699 255 ft 0 kts 15°
2026-04-30 17:57 53.36165 -2.27701 255 ft 2 kts 15°
2026-04-30 17:58 53.36118 -2.27722 255 ft 4 kts 15°
2026-04-30 17:59 53.36089 -2.27755 255 ft 0 kts 105°
2026-04-30 18:00 53.36085 -2.27731 255 ft 4 kts 103°
2026-04-30 18:01 53.36042 -2.27625 255 ft 8 kts 168°
2026-04-30 18:02 53.35824 -2.27642 255 ft 11 kts 184°
2026-04-30 18:02 53.35598 -2.27954 239 ft 21 kts 231°
2026-04-30 18:03 53.35447 -2.28152 237 ft 14 kts 196°
2026-04-30 18:04 53.35169 -2.28431 229 ft 20 kts 230°
2026-04-30 18:05 53.34825 -2.29078 218 ft 24 kts 229°
2026-04-30 18:06 53.34674 -2.29328 214 ft 1 kts 203°
2026-04-30 18:07 53.34555 -2.29308 218 ft 9 kts 150°
2026-04-30 18:08 53.34577 -2.29146 218 ft 0 kts 50°
2026-04-30 18:09 53.35289 -2.27671 239 ft 134 kts 50°
2026-04-30 18:10 53.38019 -2.21974 2374 ft 175 kts 58°
2026-04-30 18:11 53.41641 -2.13568 4392 ft 271 kts 57°
2026-04-30 18:11 53.45127 -2.05961 4736 ft 276 kts 57°
2026-04-30 18:12 53.48624 -1.98307 5010 ft 275 kts 58°
2026-04-30 18:13 53.50961 -1.93167 5026 ft 278 kts 58°
2026-04-30 18:13 53.52045 -1.85484 6907 ft 258 kts 110°
2026-04-30 18:14 53.50842 -1.78580 9204 ft 270 kts 111°
2026-04-30 18:15 53.49137 -1.68954 11254 ft 316 kts 110°
2026-04-30 18:15 53.47183 -1.57903 13672 ft 335 kts 110°
2026-04-30 18:16 53.45820 -1.50323 15219 ft 346 kts 110°
2026-04-30 18:16 53.44387 -1.42446 16708 ft 357 kts 110°
2026-04-30 18:17 53.43673 -1.38429 17451 ft 362 kts 109°
2026-04-30 18:17 53.42953 -1.34398 18146 ft 367 kts 109°
2026-04-30 18:17 53.41463 -1.26130 19541 ft 373 kts 110°
2026-04-30 18:18 53.40706 -1.21941 20248 ft 376 kts 110°
2026-04-30 18:18 53.39940 -1.17719 20933 ft 379 kts 110°
2026-04-30 18:18 53.39167 -1.13477 21618 ft 381 kts 110°
2026-04-30 18:18 53.38387 -1.09205 22294 ft 384 kts 110°
2026-04-30 18:19 53.37599 -1.04901 22958 ft 387 kts 110°
2026-04-30 18:19 53.36812 -1.00621 23563 ft 391 kts 110°
2026-04-30 18:19 53.36002 -0.96222 24088 ft 395 kts 110°
2026-04-30 18:19 53.35186 -0.91795 24650 ft 398 kts 110°
2026-04-30 18:20 53.34375 -0.87407 25168 ft 401 kts 110°
2026-04-30 18:20 53.33547 -0.82937 25678 ft 404 kts 110°
2026-04-30 18:20 53.32708 -0.78422 26184 ft 406 kts 110°
2026-04-30 18:20 53.31870 -0.73924 26673 ft 409 kts 110°
2026-04-30 18:21 53.31018 -0.69359 27152 ft 412 kts 110°
2026-04-30 18:21 53.30156 -0.64758 27616 ft 415 kts 110°
2026-04-30 18:21 53.29288 -0.60137 28068 ft 418 kts 110°
2026-04-30 18:21 53.28406 -0.55463 28508 ft 421 kts 111°
2026-04-30 18:22 53.27534 -0.50845 28929 ft 423 kts 111°
2026-04-30 18:22 53.25741 -0.41388 29747 ft 428 kts 111°
2026-04-30 18:22 53.24836 -0.36615 30178 ft 430 kts 111°
2026-04-30 18:23 53.23932 -0.31853 30601 ft 431 kts 111°
2026-04-30 18:23 53.23029 -0.27112 30926 ft 434 kts 111°
2026-04-30 18:23 53.22104 -0.22287 31283 ft 436 kts 111°
2026-04-30 18:23 53.21175 -0.17456 31690 ft 436 kts 111°
2026-04-30 18:24 53.19322 -0.07857 32624 ft 434 kts 111°
2026-04-30 18:24 53.18397 -0.03078 32985 ft 433 kts 111°
2026-04-30 18:25 53.16559 0.06371 33183 ft 429 kts 111°
2026-04-30 18:25 53.13783 0.20583 33240 ft 429 kts 111°
2026-04-30 18:26 53.10996 0.34735 33244 ft 429 kts 111°
2026-04-30 18:27 53.08198 0.48841 33246 ft 429 kts 111°
2026-04-30 18:28 53.05371 0.62985 33233 ft 429 kts 111°
2026-04-30 18:28 53.02534 0.77089 33238 ft 430 kts 111°
2026-04-30 18:29 52.98715 0.95909 33263 ft 430 kts 111°
2026-04-30 18:30 52.96111 1.15284 33263 ft 433 kts 103°
2026-04-30 18:31 52.94400 1.30045 33268 ft 433 kts 103°
2026-04-30 18:32 52.92672 1.44741 33275 ft 433 kts 104°
2026-04-30 18:33 52.90926 1.59411 33268 ft 433 kts 103°
2026-04-30 18:33 52.89160 1.74096 33273 ft 434 kts 103°
2026-04-30 18:34 52.88619 1.78564 33274 ft 434 kts 103°
2026-04-30 18:35 52.88469 1.79798 33276 ft 434 kts 103°
2026-04-30 18:35 52.87277 1.89576 33272 ft 434 kts 103°
2026-04-30 18:36 52.85470 2.04272 33068 ft 435 kts 103°
2026-04-30 18:36 52.84250 2.14093 32537 ft 437 kts 103°
2026-04-30 18:37 52.83635 2.19029 32277 ft 438 kts 103°
2026-04-30 18:37 52.83016 2.23968 32022 ft 439 kts 103°
2026-04-30 18:37 52.82397 2.28901 31735 ft 440 kts 103°
2026-04-30 18:37 52.81775 2.33835 31145 ft 442 kts 103°
2026-04-30 18:38 52.81145 2.38812 30540 ft 440 kts 103°
2026-04-30 18:38 52.80519 2.43741 29888 ft 435 kts 103°
2026-04-30 18:38 52.79900 2.48606 29289 ft 429 kts 103°
2026-04-30 18:38 52.79292 2.53372 28706 ft 423 kts 103°
2026-04-30 18:39 52.78682 2.58117 28123 ft 417 kts 103°
2026-04-30 18:39 52.78087 2.62722 27566 ft 412 kts 103°
2026-04-30 18:39 52.77492 2.67319 26996 ft 407 kts 103°
2026-04-30 18:39 52.76897 2.71895 26427 ft 403 kts 103°
2026-04-30 18:40 52.76507 2.74891 26056 ft 400 kts 104°
2026-04-30 18:40 52.75734 2.80808 25310 ft 395 kts 104°
2026-04-30 18:40 52.75321 2.83799 24893 ft 393 kts 107°
2026-04-30 18:40 52.74507 2.88073 23954 ft 399 kts 109°
2026-04-30 18:41 52.73360 2.93970 22331 ft 408 kts 109°
2026-04-30 18:41 52.72491 2.98406 21252 ft 404 kts 109°
2026-04-30 18:41 52.71906 3.01377 20629 ft 400 kts 109°
2026-04-30 18:41 52.71066 3.05628 19793 ft 390 kts 110°
2026-04-30 18:42 52.70224 3.09873 18799 ft 387 kts 110°
2026-04-30 18:42 52.68582 3.18108 17407 ft 362 kts 110°
2026-04-30 18:42 52.67814 3.21953 17126 ft 348 kts 110°
2026-04-30 18:45 52.60229 3.59444 12695 ft 344 kts 110°
2026-04-30 18:45 52.59473 3.63146 11940 ft 344 kts 110°
2026-04-30 18:45 52.58706 3.66894 11197 ft 344 kts 110°
2026-04-30 18:46 52.57890 3.70610 10469 ft 342 kts 112°
2026-04-30 18:46 52.57073 3.74175 9717 ft 332 kts 112°
2026-04-30 18:46 52.56270 3.77705 8941 ft 324 kts 112°
2026-04-30 18:46 52.55466 3.81122 8185 ft 315 kts 117°
2026-04-30 18:47 52.54211 3.83938 7863 ft 294 kts 132°
2026-04-30 18:47 52.52914 3.86311 7745 ft 270 kts 132°
2026-04-30 18:47 52.51707 3.88518 7629 ft 250 kts 132°
2026-04-30 18:47 52.50535 3.90661 7508 ft 254 kts 132°
2026-04-30 18:48 52.49349 3.92829 7425 ft 254 kts 132°
2026-04-30 18:48 52.48185 3.94949 7323 ft 252 kts 132°
2026-04-30 18:48 52.47014 3.97076 7128 ft 250 kts 132°
2026-04-30 18:48 52.45849 3.99186 6781 ft 249 kts 132°
2026-04-30 18:49 52.44683 4.01278 6424 ft 247 kts 132°
2026-04-30 18:49 52.43521 4.03353 6030 ft 246 kts 132°
2026-04-30 18:49 52.42366 4.05427 5622 ft 246 kts 132°
2026-04-30 18:49 52.41220 4.07510 5239 ft 245 kts 132°
2026-04-30 18:50 52.40096 4.09564 4859 ft 244 kts 132°
2026-04-30 18:50 52.38969 4.11624 4513 ft 241 kts 132°
2026-04-30 18:50 52.37852 4.13666 4169 ft 239 kts 132°
2026-04-30 18:50 52.36741 4.15687 3788 ft 238 kts 132°
2026-04-30 18:51 52.35644 4.17687 3462 ft 235 kts 132°
2026-04-30 18:51 52.34559 4.19661 3106 ft 233 kts 132°
2026-04-30 18:51 52.33483 4.21581 2761 ft 230 kts 132°
2026-04-30 18:51 52.32394 4.23485 2452 ft 225 kts 132°
2026-04-30 18:52 52.31327 4.25328 2358 ft 228 kts 132°
2026-04-30 18:52 52.30267 4.27139 2265 ft 228 kts 132°
2026-04-30 18:52 52.29185 4.28963 2117 ft 226 kts 132°
2026-04-30 18:52 52.28081 4.30800 2000 ft 227 kts 132°
2026-04-30 18:53 52.26969 4.32645 1972 ft 228 kts 132°
2026-04-30 18:53 52.25857 4.34492 1972 ft 228 kts 132°
2026-04-30 18:53 52.24758 4.36316 1983 ft 228 kts 132°
2026-04-30 18:53 52.23645 4.38161 1983 ft 228 kts 132°
2026-04-30 18:54 52.22532 4.40005 1983 ft 228 kts 132°
2026-04-30 18:54 52.21567 4.42036 1985 ft 226 kts 113°
2026-04-30 18:54 52.21324 4.44516 1984 ft 223 kts 92°
2026-04-30 18:54 52.21345 4.46902 1978 ft 194 kts 92°
2026-04-30 18:55 52.21378 4.48928 1988 ft 163 kts 92°
2026-04-30 18:55 52.21465 4.51971 1979 ft 112 kts 92°
2026-04-30 18:55 52.21512 4.53263 1981 ft 113 kts 92°
2026-04-30 18:56 52.21998 4.55728 1988 ft 117 kts 71°
2026-04-30 18:56 52.22410 4.56865 1986 ft 117 kts 69°
2026-04-30 18:56 52.22851 4.58007 1989 ft 119 kts 69°
2026-04-30 18:57 52.23724 4.60270 1913 ft 118 kts 69°
2026-04-30 18:57 52.24163 4.61409 1763 ft 118 kts 69°
2026-04-30 18:57 52.24600 4.62541 1611 ft 118 kts 68°
2026-04-30 18:58 52.25471 4.64800 1303 ft 117 kts 67°
2026-04-30 18:58 52.25908 4.65935 1134 ft 117 kts 69°
2026-04-30 18:58 52.26342 4.67063 980 ft 115 kts 66°
2026-04-30 18:59 52.27197 4.69279 674 ft 119 kts 64°
2026-04-30 19:00 52.28528 4.72703 184 ft 121 kts 65°
2026-04-30 19:00 52.28959 4.73848 34 ft 118 kts 62°
2026-04-30 19:00 52.29623 4.75573 -2 ft 40 kts 55°
2026-04-30 19:01 52.29883 4.75889 -2 ft 0 kts 27°
2026-04-30 19:05 52.29884 4.75890 -2 ft 1 kts 27°
2026-04-30 19:06 52.29950 4.75947 -1 ft 9 kts 26°
2026-04-30 19:06 52.30020 4.75947 -1 ft 13 kts 338°
2026-04-30 19:06 52.30026 4.75821 -1 ft 14 kts 240°
2026-04-30 19:07 52.29896 4.75480 -1 ft 20 kts 239°
2026-04-30 19:07 52.29832 4.75290 -1 ft 19 kts 258°
2026-04-30 19:08 52.30003 4.74896 -1 ft 25 kts 311°
2026-04-30 19:08 52.30223 4.74484 10 ft 23 kts 313°
2026-04-30 19:08 52.30329 4.74288 -2 ft 15 kts 311°
2026-04-30 19:09 52.30510 4.74202 -1 ft 18 kts
2026-04-30 19:09 52.30639 4.74212 -1 ft 20 kts
2026-04-30 19:09 52.30782 4.74225 -1 ft 22 kts
2026-04-30 19:10 52.31095 4.74255 -1 ft 22 kts
2026-04-30 19:10 52.31383 4.74329 -1 ft 20 kts 61°
2026-04-30 19:11 52.31398 4.74550 -1 ft 20 kts 86°
2026-04-30 19:11 52.31412 4.74999 -1 ft 21 kts 87°
2026-04-30 19:11 52.31419 4.75229 -1 ft 19 kts 88°
2026-04-30 19:12 52.31414 4.75396 -1 ft 9 kts 133°
2026-04-30 19:12 52.31343 4.75420 -2 ft 12 kts 176°
2026-04-30 19:12 52.31248 4.75427 -2 ft 15 kts 177°
2026-04-30 19:13 52.31074 4.75490 -2 ft 13 kts 147°
2026-04-30 19:13 52.31050 4.75514 -2 ft 0 kts 148°